Regional Weather Roundup
Issued by NWS Upton, NY

Current Version | Previous Version | Graphics & Text | Print | Product List | Glossary Off
Versions: 1 2 3 4 5 6 7 8 9 10 11 12 13 14 15 16 17 18 19 20 21 22 23 24 25 26 27

000
ASUS41 KOKX 221304
RWROKX

REGIONAL WEATHER ROUNDUP
NATIONAL WEATHER SERVICE NEW YORK NY
900 AM EDT FRI JUL 22 2016

NOTE: "FAIR" INDICATES FEW OR NO CLOUDS BELOW 12,000 FEET WITH NO
SIGNIFICANT WEATHER AND/OR OBSTRUCTIONS TO VISIBILITY.

NYZ071-072-176-178-NJZ106-104-221400-
NEW YORK CITY METRO AREA

CITY           SKY/WX    TMP DP  RH WIND       PRES   REMARKS
Central Park   MOSUNNY   78  67  68 MISG      29.99S
LaGuardia APRT PTSUNNY   82  68  62 SW14      29.96S
Kennedy INTL   PTSUNNY   79  71  76 SW15      29.98F
Newark/Liberty PTSUNNY   80  68  66 SW16      29.96F
BRNX BOT. GARD   N/A     79  66  65 SW3       29.98S
Wall St Helipt MOSUNNY   77  70  78 W9        29.98S
Teterboro      SUNNY     79  67  66 SW9       29.95S
$$

NYZ177-179-078>081-221400-
LONG ISLAND NEW YORK

CITY           SKY/WX    TMP DP  RH WIND       PRES   REMARKS
FARMINGDALE    CLOUDY    78  69  73 SW12      29.97S
ISLIP          CLOUDY    78  69  73 SW13      29.96S
SHIRLEY        MOSUNNY   79  69  71 SW15G21   29.98S
RIVERHEAD      NOT AVBL
WESTHAMPTON    CLOUDY    77  69  76 SW13G22   29.99S
SOUTHAMPTON      N/A     73  70  88 SW9       29.93S
BRIDGEHAMPTON    N/A     77  72  83 S2        29.96S
EAST HAMPTON   FAIR      78  69  75 SW10G18   29.96S
MONTAUK POINT    N/A     77  69  76 SW10G20   29.97F
$$

NYZ052-065-067-221400-
HUDSON VALLEY

CITY           SKY/WX    TMP DP  RH WIND       PRES   REMARKS
WHITE PLAINS   PTSUNNY   76  66  71 VRB7      29.96S
NEWBURGH       MOSUNNY   77  68  73 W9        29.96S
MONTGOMERY     MOSUNNY   76  66  71 SW12      29.94S
POUGHKEEPSIE   MOSUNNY   79  64  60 S8        29.92S
ALBANY         MOSUNNY   78  63  59 S12       29.87S
$$

NJZ001-105-106-008-010-013-015-019>022-104-221400-
NEW JERSEY

CITY           SKY/WX    TMP DP  RH WIND       PRES   REMARKS
NEWARK/LIBERTY PTSUNNY   80  68  66 SW16      29.96F
TETERBORO      SUNNY     79  67  66 SW9       29.95S
CALDWELL       MOSUNNY   78  67  68 VRB6      29.96F
MORRISTOWN     PTSUNNY   77  68  73 W8        29.97S
SOMERVILLE     MOSUNNY   78  68  71 VRB3      29.96F
SUSSEX         PTSUNNY   75  67  76 SW9       29.97S
ANDOVER          N/A     75  66  73 VRB5      29.99R
TRENTON        PTSUNNY   79  69  71 SW9       29.99S
MILLVILLE      CLOUDY    80  71  74 VRB6      30.03S
ATLANTIC CITY  CLOUDY    81  71  71 SW14      30.03S
WRIGHTSTOWN    MOSUNNY   79  70  75 SW14      29.97F
TOMS RIVER     CLOUDY    81  72  74 SW14      30.01S
BELMAR         MOSUNNY   80  70  71 SW16      30.01S
$$

PAZ047>061-062-071-221400-
EASTERN PENNSYLVANIA

CITY           SKY/WX    TMP DP  RH WIND       PRES   REMARKS
PHILADELPHIA   CLOUDY    79  70  74 SW12      30.01S
ALLENTOWN      MOSUNNY   79  65  62 W10       29.99S
SCRANTON       MOSUNNY   79  62  56 SW9       29.99S
$$

CTZ002-004>006-009-010-012-RIZ004-006-007-MAZ004-011-015-221400-
SOUTHERN NEW ENGLAND
 IN CT

CITY           SKY/WX    TMP DP  RH WIND       PRES   REMARKS
BRADLEY INTL   PTSUNNY   78  64  61 SW12      29.89F
HARTFORD       MOSUNNY   82  68  62 SW6       29.90F
DANBURY        PTSUNNY   77  66  68 SW13      29.96F
WTRBRY/OXFORD  MOSUNNY   73  64  73 SW6       29.96F
BRIDGEPORT     SUNNY     78  69  73 SW14      29.94F
MERIDEN        CLOUDY    79  67  66 S3        29.92F
NEW HAVEN      PTSUNNY   76  69  79 SW7       29.95F
CHESTER        FAIR      77  70  78 VRB6G15   29.95F
GROTON         MOSUNNY   78  70  76 SW7       29.94F
WILLIMANTIC    NOT AVBL

 IN RI

CITY           SKY/WX    TMP DP  RH WIND       PRES   REMARKS
PROVIDENCE     PTSUNNY   79  67  66 SW9       29.91F
BLOCK ISLAND   CLOUDY    75  69  81 SW17      29.96F
WESTERLY       CLOUDY    78  67  68 SW13G20   29.95F

 IN MA

CITY           SKY/WX    TMP DP  RH WIND       PRES   REMARKS
BOSTON         CLOUDY    82  63  52 SW21      29.86F
WORCESTER      CLOUDY    76  61  59 SW18      29.92F
WESTFIELD      MOSUNNY   78  64  61 S12       29.89S
PROVINCETOWN   NOT AVBL
NANTUCKET      PTSUNNY   73  70  90 SW15      29.97F
$$

ANZ330-335-338-340-345-350-353-355-221400-
COASTAL MARINE OBSERVATIONS


STATION/POSITION TIME  SKY/WX   TEMP    WIND        PRES    VSBY  WAVE
                                AIR SEA DIR/SP/G                  HT/PER
                 (UTC)          (F)     (DEG/KT/KT) (MB)    (MI)  (FT/S)
NY HARB ENTRANCE 1150            74 74  220/ 14/ 17 1014.9          3/ 8
20S FIRE ISLAND  1150            75 73  220/ 16/ 17 1015.2          4/ 5
GREAT SOUTH BAY  1200            75 79  240/ 17/ 21   N/A
23 SSW MONTAUK P 1150            75 72  230/ 16/ 19 1015.5          4/ 5
15 E BARNEGAT LI 1222               76                N/A           4/ 9
HUDSON CANYON    1150            77 75              1016.8          3/ 9
KINGS POINT      1200            76 72              1014.4
EXECUTION ROCKS  1200            76     210/ 10/ 12   N/A
CENTRAL LI SOUND 1215            75 71  220/ 12/ 14   N/A           2/ 3
EASTERN LI SOUND 1200            72 67  210/ 10/ 14   N/A
ROBBINS REEF     1200            76     250/ 13/ 18 1014.1
$$


>>>>>>>>>>>>>>>>>>>>>>>>>>>> KEY <<<<<<<<<<<<<<<<<<<<<<<<<<<
>                                                          <
>     SKY/WX - SKY CONDITION/PRESENT WEATHER               <
>     TMP    - TEMPERATURE IN FAHRENHEIT                   <
>     DP     - DEWPOINT IN FAHRENHEIT                      <
>     RH     - RELATIVE HUMIDITY IN PERCENT                <
>     WIND   - DIRECTION AND SPEED IN MPH                  <
>     PRES   - MEAN SEA LEVEL PRESSURE IN INCHES OF HG     <
>     WCI    - WIND CHILL INDEX                            <
>     VSB    - VISIBILITY IN MILES                         <
>     HX     - HEAT INDEX                                  <
>     TC     - TEMPERATURE IN CELSIUS                      <
>     VRB    - VARIABLE WIND DIRECTION                     <
>                                                          <
>>>>>>>>>>>>>>>>>>>>>>>>>>>> KEY <<<<<<<<<<<<<<<<<<<<<<<<<<<






USA.gov is the U.S. government's official web portal to all federal, state and local government web resources and services.